DW5846 Weather Reports


Display with metric or nautical units.
time (UTC)temp
F
wind
direction
speed
MPH
gust
MPH
rain 1hr
in
rain 24hr
in
rain mn
in
humidity
%
barometer
mb
20181115102839 27 173 0.0 0.0 0.00 0.00 0.00 76 1016.3
20181115102340 27 165 0.0 0.0 0.00 0.00 0.00 76 1016.3
20181115101839 27 276 0.0 0.0 0.00 0.00 0.00 75 1016.3
20181115101343 27 205 0.0 0.0 0.00 0.00 0.00 75 1016.5
20181115100845 27 183 0.0 0.0 0.00 0.00 0.00 75 1016.5
20181115100340 27 144 0.0 0.0 0.00 0.00 0.00 75 1016.6
20181115095834 27 164 0.0 0.0 0.00 0.00 0.00 75 1016.6
20181115095335 28 191 0.0 0.0 0.00 0.00 0.00 75 1016.8
20181115094832 28 173 0.0 0.0 0.00 0.00 0.00 75 1016.9
20181115094331 28 154 0.0 0.0 0.00 0.00 0.00 75 1016.9
20181115093829 28 117 0.0 0.0 0.00 0.00 0.00 75 1016.9
20181115093329 28 153 0.0 0.0 0.00 0.00 0.00 75 1017.0
20181115092828 28 160 0.0 0.0 0.00 0.00 0.00 75 1017.1
20181115092351 28 183 0.0 0.0 0.00 0.00 0.00 75 1017.2
20181115091837 28 132 0.0 0.0 0.00 0.00 0.00 75 1017.2
20181115091345 28 136 0.0 0.0 0.00 0.00 0.00 75 1017.3
20181115090844 28 183 0.0 0.0 0.00 0.00 0.00 75 1017.4
20181115090342 28 164 0.0 0.0 0.00 0.00 0.00 75 1017.5
20181115085842 28 147 0.0 0.0 0.00 0.00 0.00 75 1017.7
20181115085342 28 142 0.0 0.0 0.00 0.00 0.00 75 1017.7
20181115084839 28 276 0.0 0.0 0.00 0.00 0.00 74 1017.9
20181115084343 28 189 0.0 0.0 0.00 0.00 0.00 75 1018.0
20181115083842 28 173 0.0 0.0 0.00 0.00 0.00 74 1018.1
20181115083341 28 151 0.0 0.0 0.00 0.00 0.00 74 1018.2
20181115082852 28 173 0.0 0.0 0.00 0.00 0.00 74 1018.3
20181115082341 28 178 0.0 0.0 0.00 0.00 0.00 74 1018.4
20181115081839 28 145 0.0 0.0 0.00 0.00 0.00 74 1018.4
20181115081339 28 173 0.0 0.0 0.00 0.00 0.00 74 1018.5
20181115080838 28 173 0.0 0.0 0.00 0.00 0.00 74 1018.7
20181115080336 28 128 0.0 0.0 0.00 0.00 0.00 73 1018.6
20181115075837 28 115 0.0 0.0 0.00 0.00 0.00 73 1018.7
20181115075338 28 165 0.0 0.0 0.00 0.00 0.00 73 1018.7
20181115074839 28 210 0.0 0.0 0.00 0.00 0.00 73 1018.9
20181115074332 28 173 0.0 0.0 0.00 0.00 0.00 73 1018.9
20181115073832 28 193 0.0 0.0 0.00 0.00 0.00 73 1018.9
20181115073333 28 158 0.0 0.0 0.00 0.00 0.00 73 1019.0
20181115072835 28 183 0.0 0.0 0.00 0.00 0.00 72 1019.0
20181115072338 28 205 0.0 0.0 0.00 0.00 0.00 72 1019.1
20181115071840 28 139 0.0 0.0 0.00 0.00 0.00 72 1019.1
20181115071341 28 197 0.0 0.0 0.00 0.00 0.00 72 1019.2
20181115070842 28 168 0.0 0.0 0.00 0.00 0.00 72 1019.3
20181115070345 28 178 0.0 0.0 0.00 0.00 0.00 72 1019.4
20181115065830 29 206 0.0 0.0 0.00 0.00 0.00 71 1019.4
20181115065329 29 191 0.0 0.0 0.00 0.00 0.00 71 1019.5
20181115064828 29 231 0.0 0.0 0.00 0.00 0.00 71 1019.7
20181115064328 29 178 0.0 0.0 0.00 0.00 0.00 70 1019.8
20181115063828 29 187 0.0 0.0 0.00 0.00 0.00 70 1019.8
20181115063348 29 200 0.0 0.0 0.00 0.00 0.00 70 1019.8
20181115062845 29 173 0.0 0.0 0.00 0.00 0.00 69 1019.7
20181115062345 29 223 0.0 0.0 0.00 0.00 0.00 69 1019.8
20181115061850 29 202 0.0 0.0 0.00 0.00 0.00 69 1019.9
20181115061342 29 153 0.0 0.0 0.00 0.00 0.00 69 1020.1
20181115060842 29 164 0.0 0.0 0.00 0.00 0.00 69 1020.1
20181115060343 29 183 0.0 0.0 0.00 0.00 0.00 68 1020.3
20181115055845 29 152 0.0 0.0 0.00 0.00 0.00 68 1020.3
20181115055344 30 178 0.0 0.0 0.00 0.00 0.00 68 1020.3
20181115054844 30 214 0.0 0.0 0.00 0.00 0.00 68 1020.4
20181115054343 30 187 0.0 0.0 0.00 0.00 0.00 67 1020.4
20181115053842 30 178 0.0 0.0 0.00 0.00 0.00 67 1020.5
20181115053345 30 192 0.0 0.0 0.00 0.00 0.00 67 1020.5
20181115052851 30 207 0.0 0.0 0.00 0.00 0.00 67 1020.6
20181115052336 30 178 0.0 0.0 0.00 0.00 0.00 66 1020.7
20181115051844 30 151 0.0 0.0 0.00 0.00 0.00 66 1020.8
20181115051342 30 183 0.0 0.0 0.00 0.00 0.00 65 1021.0
20181115050841 30 145 0.0 0.0 0.00 0.00 0.00 65 1020.9
20181115050342 30 183 0.0 0.0 0.00 0.00 0.00 65 1020.9
20181115045839 31 173 0.0 0.0 0.00 0.00 0.00 65 1021.0
20181115045339 31 200 0.0 0.0 0.00 0.00 0.00 64 1021.1
20181115044839 31 188 0.0 0.0 0.00 0.00 0.00 64 1021.2
20181115044334 31 183 0.0 0.0 0.00 0.00 0.00 64 1021.2
20181115043833 31 192 0.0 0.0 0.00 0.00 0.00 63 1021.3
20181115043334 31 183 0.0 0.0 0.00 0.00 0.00 63 1021.4
20181115042834 31 168 0.0 0.0 0.00 0.00 0.00 63 1021.4
20181115042335 31 213 0.0 0.0 0.00 0.00 0.00 63 1021.5
20181115041835 31 178 0.0 0.0 0.00 0.00 0.00 62 1021.6
20181115041336 32 166 0.0 0.0 0.00 0.00 0.00 62 1021.5
20181115040836 32 154 0.0 0.0 0.00 0.00 0.00 62 1021.6
20181115040338 32 162 0.0 0.0 0.00 0.00 0.00 61 1021.7
20181115035846 32 183 0.0 0.0 0.00 0.00 0.00 61 1021.7
20181115035344 32 158 0.0 0.0 0.00 0.00 0.00 61 1021.7
20181115034845 32 164 0.0 0.0 0.00 0.00 0.00 61 1021.8
20181115033834 32 158 0.0 0.0 0.00 0.00 0.00 61 1021.8
20181115033333 32 173 0.0 0.0 0.00 0.00 0.00 61 1021.9
20181115032832 32 158 0.0 0.0 0.00 0.00 0.00 61 1021.8
20181115032331 32 183 0.0 0.0 0.00 0.00 0.00 60 1021.7
20181115031833 33 202 0.0 0.0 0.00 0.00 0.00 60 1021.7
20181115031332 33 193 0.0 0.0 0.00 0.00 0.00 60 1021.8
20181115030832 33 193 0.0 0.0 0.00 0.00 0.00 60 1021.8
20181115030331 33 154 0.0 0.0 0.00 0.00 0.00 60 1022.0
20181115025832 33 173 0.0 0.0 0.00 0.00 0.00 60 1021.9
20181115025331 33 163 0.0 0.0 0.00 0.00 0.00 60 1022.0
20181115024830 33 169 0.0 0.0 0.00 0.00 0.00 60 1022.0
20181115024352 33 157 0.0 0.0 0.00 0.00 0.00 60 1022.0
20181115023843 33 199 0.0 0.0 0.00 0.00 0.00 60 1022.1
20181115023343 33 160 0.0 0.0 0.00 0.00 0.00 60 1022.2
20181115022842 33 144 0.0 0.0 0.00 0.00 0.00 59 1022.2
20181115022342 33 173 0.0 0.0 0.00 0.00 0.00 59 1022.0
20181115021843 33 204 0.0 0.0 0.00 0.00 0.00 59 1022.2
20181115021328 33 168 0.0 0.0 0.00 0.00 0.00 59 1022.3
20181115020827 34 178 0.0 0.0 0.00 0.00 0.00 59 1022.3
20181115020345 34 147 0.0 0.0 0.00 0.00 0.00 59 1022.3
20181115015846 34 203 0.0 0.0 0.00 0.00 0.00 58 1022.4
20181115015344 34 173 0.0 0.0 0.00 0.00 0.00 58 1022.5
20181115014843 34 183 0.0 0.0 0.00 0.00 0.00 58 1022.5
20181115014345 34 164 0.0 0.0 0.00 0.00 0.00 58 1022.6
20181115013841 34 183 0.0 0.0 0.00 0.00 0.00 57 1022.6
20181115013343 35 121 0.0 0.0 0.00 0.00 0.00 57 1022.6
20181115012841 35 168 0.0 0.0 0.00 0.00 0.00 57 1022.6
20181115012335 35 144 0.0 0.0 0.00 0.00 0.00 57 1022.6
20181115011833 35 159 0.0 0.0 0.00 0.00 0.00 58 1022.7
20181115011332 35 199 0.0 0.0 0.00 0.00 0.00 58 1022.8
20181115010832 35 190 0.0 0.0 0.00 0.00 0.00 58 1022.7
20181115010351 35 133 0.0 0.0 0.00 0.00 0.00 57 1022.7
20181115005829 35 201 0.0 0.0 0.00 0.00 0.00 57 1022.8
20181115005328 36 149 0.0 0.0 0.00 0.00 0.00 57 1022.7
20181115004829 36 143 0.0 0.0 0.00 0.00 0.00 57 1022.7
20181115004349 36 156 0.0 0.0 0.00 0.00 0.00 57 1022.7
20181115003839 36 148 0.0 0.0 0.00 0.00 0.00 57 1022.8
20181115003340 36 137 0.0 0.0 0.00 0.00 0.00 57 1022.9
20181115002839 36 156 0.0 0.0 0.00 0.00 0.00 56 1022.9
20181115002337 36 127 0.0 0.0 0.00 0.00 0.00 55 1023.0
20181115001835 37 164 0.0 0.0 0.00 0.00 0.00 55 1022.9
20181115001334 37 160 0.0 0.0 0.00 0.00 0.00 54 1022.9
20181115000833 37 161 0.0 0.0 0.00 0.00 0.00 53 1023.0
20181115000332 38 132 0.0 0.0 0.00 0.00 0.00 52 1023.1
20181114235831 38 144 0.0 0.0 0.00 0.00 0.00 52 1023.2
20181114235329 39 178 0.0 0.0 0.00 0.00 0.00 51 1023.2
20181114234840 39 153 0.0 0.0 0.00 0.00 0.00 50 1023.2
20181114234331 39 178 0.0 0.0 0.00 0.00 0.00 50 1023.3
20181114233828 40 160 0.0 0.0 0.00 0.00 0.00 49 1023.3
20181114233333 40 189 0.0 0.0 0.00 0.00 0.00 49 1023.4
20181114232835 40 189 0.0 0.0 0.00 0.00 0.00 48 1023.3
20181114232334 41 178 0.0 0.0 0.00 0.00 0.00 48 1023.4
20181114231832 41 166 0.0 0.0 0.00 0.00 0.00 47 1023.4
20181114231333 41 151 0.0 0.0 0.00 0.00 0.00 47 1023.4
20181114230832 42 166 0.0 0.0 0.00 0.00 0.00 46 1023.3
20181114230331 42 189 0.0 0.0 0.00 0.00 0.00 45 1023.3
20181114225842 43 160 0.0 0.0 0.00 0.00 0.00 45 1023.4
20181114225336 43 139 0.0 0.0 0.00 0.00 0.00 44 1023.5
20181114224328 44 197 0.0 0.0 0.00 0.00 0.00 44 1023.6
20181114223850 45 173 0.0 0.0 0.00 0.00 0.00 43 1023.6
20181114223345 45 173 0.0 0.0 0.00 0.00 0.00 42 1023.7
20181114222844 45 202 0.0 0.0 0.00 0.00 0.00 42 1023.6
20181114222342 45 189 0.0 0.0 0.00 0.00 0.00 42 1023.6
20181114221844 46 141 0.0 0.0 0.00 0.00 0.00 42 1023.6
20181114221341 46 197 0.0 0.0 0.00 0.00 0.00 42 1023.6
20181114220840 46 173 0.0 0.0 0.00 0.00 0.00 42 1023.7
20181114220338 46 159 0.0 0.0 0.00 0.00 0.00 42 1023.7
20181114215837 46 151 0.0 0.0 0.00 0.00 0.00 42 1023.8
20181114215337 46 168 0.0 0.0 0.00 0.00 0.00 42 1023.7
20181114214834 46 129 0.0 0.0 0.00 0.00 0.00 42 1023.7
20181114214334 46 231 0.0 0.0 0.00 0.00 0.00 42 1023.7
20181114213834 47 183 0.0 0.0 0.00 0.00 0.00 41 1023.7
20181114213330 47 142 0.0 0.0 0.00 0.00 0.00 41 1023.7
20181114212841 47 153 0.0 0.0 0.00 0.00 0.00 42 1023.8
20181114212350 47 173 0.0 0.0 0.00 0.00 0.00 41 1023.8
20181114211845 47 183 0.0 0.0 0.00 0.00 0.00 41 1023.9
20181114211345 47 192 0.0 0.0 0.00 0.00 0.00 40 1024.0
20181114210846 47 216 0.0 0.0 0.00 0.00 0.00 40 1024.0
20181114210346 48 160 0.0 0.0 0.00 0.00 0.00 41 1024.1
20181114205829 48 191 0.0 0.0 0.00 0.00 0.00 41 1024.3
20181114205349 48 190 0.0 0.0 0.00 0.00 0.00 41 1024.4
20181114204845 47 188 0.0 0.0 0.00 0.00 0.00 41 1024.6
20181114204345 47 173 0.0 0.0 0.00 0.00 0.00 42 1024.6
20181114203842 47 200 0.0 0.0 0.00 0.00 0.00 42 1024.6
20181114203336 47 220 0.0 0.0 0.00 0.00 0.00 42 1024.7
20181114202835 47 123 0.0 0.0 0.00 0.00 0.00 42 1024.8
20181114202334 48 214 0.0 0.0 0.00 0.00 0.00 41 1024.9
20181114201830 48 218 0.0 0.0 0.00 0.00 0.00 41 1025.0
20181114201330 48 206 0.0 0.0 0.00 0.00 0.00 41 1025.0
20181114200848 47 228 0.0 0.0 0.00 0.00 0.00 42 1025.1
20181114200344 47 207 0.0 0.0 0.00 0.00 0.00 42 1025.2
20181114195844 47 151 0.0 0.0 0.00 0.00 0.00 43 1025.2
20181114195343 47 106 0.0 0.0 0.00 0.00 0.00 42 1025.3
20181114194837 47 141 0.0 0.0 0.00 0.00 0.00 42 1025.4
20181114194337 47 216 0.0 0.0 0.00 0.00 0.00 42 1025.4
20181114193841 47 183 0.0 0.0 0.00 0.00 0.00 44 1025.5
20181114193341 47 190 0.0 0.0 0.00 0.00 0.00 43 1025.5
20181114192841 47 189 0.0 0.0 0.00 0.00 0.00 42 1025.6
20181114192342 47 206 0.0 0.0 0.00 0.00 0.00 43 1025.7
20181114191331 47 178 0.0 0.0 0.00 0.00 0.00 44 1025.8
20181114190831 47 212 0.0 0.0 0.00 0.00 0.00 44 1025.9
20181114190330 47 212 0.0 0.0 0.00 0.00 0.00 44 1026.2
20181114185829 46 178 0.0 0.0 0.00 0.00 0.00 45 1026.2
20181114185329 46 192 0.0 0.0 0.00 0.00 0.00 45 1026.3
20181114184849 46 224 0.0 0.0 0.00 0.00 0.00 45 1026.6
20181114184345 46 167 0.0 0.0 0.00 0.00 0.00 46 1026.6
20181114183829 45 187 0.0 0.0 0.00 0.00 0.00 45 1026.7
20181114183331 45 178 0.0 0.0 0.00 0.00 0.00 45 1026.8
20181114182829 45 212 0.0 0.0 0.00 0.00 0.00 46 1026.9
20181114182331 45 173 0.0 0.0 0.00 0.00 0.00 46 1027.0
20181114181828 45 183 0.0 0.0 0.00 0.00 0.00 46 1027.1
20181114181328 45 178 0.0 0.0 0.00 0.00 0.00 47 1027.3
20181114180847 45 189 0.0 0.0 0.00 0.00 0.00 48 1027.5
20181114180343 44 204 0.0 0.0 0.00 0.00 0.00 48 1027.5
20181114175840 44 226 0.0 0.0 0.00 0.00 0.00 49 1027.7
20181114175340 44 183 0.0 0.0 0.00 0.00 0.00 48 1027.8
20181114174839 43 168 0.0 0.0 0.00 0.00 0.00 51 1028.0
20181114174339 43 187 0.0 0.0 0.00 0.00 0.00 52 1028.0
20181114173837 43 141 0.0 0.0 0.00 0.00 0.00 53 1028.2
20181114173337 42 211 0.0 0.0 0.00 0.00 0.00 54 1028.2
20181114172839 42 208 0.0 0.0 0.00 0.00 0.00 54 1028.3
20181114172341 41 164 0.0 0.0 0.00 0.00 0.00 54 1028.3
20181114171842 41 216 0.0 0.0 0.00 0.00 0.00 54 1028.4
20181114171341 41 194 0.0 0.0 0.00 0.00 0.00 55 1028.4
20181114170841 41 242 0.0 0.0 0.00 0.00 0.00 55 1028.4
20181114170342 40 204 0.0 0.0 0.00 0.00 0.00 56 1028.5
20181114165836 40 137 0.0 0.0 0.00 0.00 0.00 56 1028.6
20181114165338 40 205 0.0 0.0 0.00 0.00 0.00 56 1028.7
20181114164831 39 202 0.0 0.0 0.00 0.00 0.00 57 1028.8
20181114164330 39 202 0.0 0.0 0.00 0.00 0.00 57 1028.9
20181114163830 39 208 0.0 0.0 0.00 0.00 0.00 58 1029.0
20181114163329 39 206 0.0 0.0 0.00 0.00 0.00 59 1029.0
20181114162826 38 198 0.0 0.0 0.00 0.00 0.00 60 1029.1
20181114162331 38 136 0.0 0.0 0.00 0.00 0.00 61 1029.1
20181114161831 37 135 0.0 0.0 0.00 0.00 0.00 62 1029.1
20181114161331 37 197 0.0 0.0 0.00 0.00 0.00 63 1029.1
20181114160830 37 197 0.0 0.0 0.00 0.00 0.00 65 1029.1
20181114160331 36 188 0.0 0.0 0.00 0.00 0.00 66 1029.2
20181114155833 36 183 0.0 0.0 0.00 0.00 0.00 67 1029.2
20181114155336 35 147 0.0 0.0 0.00 0.00 0.00 68 1029.2
20181114154835 35 143 0.0 0.0 0.00 0.00 0.00 69 1029.0
20181114154336 34 207 0.0 0.0 0.00 0.00 0.00 71 1029.1
20181114153835 33 197 0.0 0.0 0.00 0.00 0.00 72 1029.0
20181114153336 33 225 0.0 0.0 0.00 0.00 0.00 73 1029.1
20181114152837 32 183 0.0 0.0 0.00 0.00 0.00 74 1029.1
20181114152336 32 183 0.0 0.0 0.00 0.00 0.00 75 1029.0
20181114151834 31 236 0.0 0.0 0.00 0.00 0.00 76 1029.0
20181114151345 31 149 0.0 0.0 0.00 0.00 0.00 77 1029.1
20181114150833 30 208 0.0 0.0 0.00 0.00 0.00 77 1029.1
20181114150333 30 166 0.0 0.0 0.00 0.00 0.00 78 1029.1
20181114145838 29 187 0.0 0.0 0.00 0.00 0.00 79 1029.1
20181114145339 28 173 0.0 0.0 0.00 0.00 0.00 79 1029.2
20181114144841 28 187 0.0 0.0 0.00 0.00 0.00 80 1029.3
20181114144340 28 134 0.0 0.0 0.00 0.00 0.00 80 1029.2
20181114143840 27 183 0.0 0.0 0.00 0.00 0.00 81 1029.3
20181114143341 27 178 0.0 0.0 0.00 0.00 0.00 82 1029.2
20181114142836 26 203 0.0 0.0 0.00 0.00 0.00 82 1029.2
20181114142327 26 193 0.0 0.0 0.00 0.00 0.00 83 1029.2
20181114141846 25 160 0.0 0.0 0.00 0.00 0.00 83 1029.2
20181114141326 25 156 0.0 0.0 0.00 0.00 0.00 83 1029.1
20181114140827 24 148 0.0 0.0 0.00 0.00 0.00 84 1029.0
20181114140326 24 164 0.0 0.0 0.00 0.00 0.00 83 1029.0
20181114135846 24 197 0.0 0.0 0.00 0.00 0.00 83 1029.0
20181114135344 23 197 0.0 0.0 0.00 0.00 0.00 83 1029.0
20181114134335 23 157 0.0 0.0 0.00 0.00 0.00 83 1029.0
20181114133831 23 188 0.0 0.0 0.00 0.00 0.00 83 1028.8
20181114133332 23 178 0.0 0.0 0.00 0.00 0.00 83 1028.8
20181114132832 23 183 0.0 0.0 0.00 0.00 0.00 83 1028.7
20181114132331 23 183 0.0 0.0 0.00 0.00 0.00 83 1028.7
20181114131830 23 158 0.0 0.0 0.00 0.00 0.00 83 1028.6
20181114131330 23 159 0.0 0.0 0.00 0.00 0.00 83 1028.6
20181114130830 23 173 0.0 0.0 0.00 0.00 0.00 83 1028.6
20181114130347 23 183 0.0 0.0 0.00 0.00 0.00 83 1028.5
20181114125838 23 183 0.0 0.0 0.00 0.00 0.00 83 1028.6
20181114125339 23 183 0.0 0.0 0.00 0.00 0.00 83 1028.6
20181114124838 23 199 0.0 0.0 0.00 0.00 0.00 83 1028.6
20181114124338 23 204 0.0 0.0 0.00 0.00 0.00 83 1028.5
20181114123332 23 195 0.0 0.0 0.00 0.00 0.00 83 1028.5
20181114122832 23 193 0.0 0.0 0.00 0.00 0.00 83 1028.5
20181114122332 23 173 0.0 0.0 0.00 0.00 0.00 83 1028.4
20181114121844 23 151 0.0 0.0 0.00 0.00 0.00 83 1028.4
20181114121332 23 178 0.0 0.0 0.00 0.00 0.00 83 1028.3
20181114120831 23 183 0.0 0.0 0.00 0.00 0.00 83 1028.3
20181114120331 23 183 0.0 0.0 0.00 0.00 0.00 83 1028.3
20181114115830 23 204 0.0 0.0 0.00 0.00 0.00 83 1028.4
20181114115329 23 169 0.0 0.0 0.00 0.00 0.00 83 1028.4
20181114114830 23 190 0.0 0.0 0.00 0.00 0.00 83 1028.5
20181114114329 23 204 0.0 0.0 0.00 0.00 0.00 83 1028.4
20181114113827 23 198 0.0 0.0 0.00 0.00 0.00 83 1028.4
20181114113327 23 199 0.0 0.0 0.00 0.00 0.00 83 1028.4
20181114112845 23 194 0.0 0.0 0.00 0.00 0.00 83 1028.3
20181114112334 23 200 0.0 0.0 0.00 0.00 0.00 83 1028.4
20181114111830 23 173 0.0 0.0 0.00 0.00 0.00 83 1028.4
20181114111330 23 165 0.0 0.0 0.00 0.00 0.00 83 1028.4
20181114110828 23 201 0.0 0.0 0.00 0.00 0.00 83 1028.4
20181114110333 23 195 0.0 0.0 0.00 0.00 0.00 83 1028.4
20181114105832 23 198 0.0 0.0 0.00 0.00 0.00 83 1028.3
20181114105332 23 183 0.0 0.0 0.00 0.00 0.00 83 1028.3
20181114104832 23 202 0.0 0.0 0.00 0.00 0.00 83 1028.4
20181114104331 23 178 0.0 0.0 0.00 0.00 0.00 83 1028.4
20181114103851 23 178 0.0 0.0 0.00 0.00 0.00 83 1028.4
20181114103337 23 226 0.0 0.0 0.00 0.00 0.00 83 1028.5